38P/Stephan-Oterma (2018)

Japanese version
Home page
Updated on July 7, 2017

---------------------------------------------------------------------

* Profile

* Orbital Elements

Epoch 2018 Nov. 18.0 TT = JDT 2458440.5
T 2018 Nov. 10.97151 TT                                 Kobayashi
q   1.5885872            (2000.0)            P               Q
n   0.02596827     Peri.  359.58109     +0.21469979     -0.92684769
a  11.2938160      Node    77.99966     +0.89699971     +0.06236927
e   0.8593401      Incl.   18.35298     +0.38638779     +0.37022080
P  38.0
From 258 observations 1867 Jan. 25-1981 Apr. 4, mean residual 1".2.
     Nongravitational parameters A1 = +0.31, A2 = -0.0032.

* Finding Charts

* Magnitudes Graph

        m1 = 3.5 + 5 log d + 30.0 log r

---------------------------------------------------------------------

The orbital elements are published on M.P.E.C. 2015-M77.
The charts are made with StellaNavigator Ver.8 (AstroArts).
The magnitudes graphs are made with Comet for Windows.

---------------------------------------------------------------------

Copyright(C) Seiichi Yoshida (comet@aerith.net). All rights reserved.